Regional Weather Roundup
Issued by NWS

Current Version | Previous Version | Text Only | Print | Product List | Glossary On
Versions: 1 2 3 4 5 6 7 8 9 10 11 12 13 14 15 16 17 18 19 20 21 22 23 24 25 26 27 28 29 30 31 32 33 34 35 36 37 38 39 40 41 42 43 44 45 46 47 48 49 50
000
ASUS45 KTFX 010810
RWRMT
Montana Regional Weather Roundup
National Weather Service Great Falls MT
100 AM MST MON MAR 01 2021

NOTE: "FAIR" indicates few or no clouds below 12,000 feet with no
significant weather and/or obstructions to visibility.

MTZ001>007-043-010900-
West of the divide

CITY           SKY/WX    TMP DP  RH WIND       PRES   REMARKS
Kalispell      CLOUDY    34  27  75 S6        30.22F WCI  29
Missoula       CLOUDY    31  27  85 CALM      30.26F
Butte          CLOUDY    30  18  60 E3        30.22S
Anaconda         N/A     27  18  69 NE3       30.22F
Deer Lodge       N/A     19  16  86 W7        30.25F WCI  10
Hamilton       CLEAR     30  23  74 S7        30.26S WCI  23
Mullan Pass    CLOUDY    25  20  81 VRB6      30.14S HAZE    WCI  18
Ronan            N/A     34  27  75 S8        30.24F WCI  27
$$

MTZ008-052>055-010900-
Southwest Montana

CITY           SKY/WX    TMP DP  RH WIND       PRES   REMARKS
Bozeman        CLOUDY    31  22  69 S7        30.23S WCI  24
Dillon         CLEAR     19  11  70 S10       30.24S WCI   7
Ennis          CLEAR     21  12  68 S25       30.28F WCI   4
Twin Bridges   CLEAR     23  16  74 S12       30.28R WCI  12
$$

MTZ009-010-012-014-046-048-049-054-010900-
East Slopes and Central Montana

CITY           SKY/WX    TMP DP  RH WIND       PRES   REMARKS
Cut Bank       MOCLDY    34  23  64 W30G44    29.95F WCI  20
Great Falls    CLEAR     34  21  59 SW22      30.05F WCI  22
Helena         PTCLDY    32  20  61 S3        30.19S
Malmstrom AFB  CLEAR     33  24  69 SW20      30.06F WCI  21
Bowmans Corner MOCLDY    31  22  69 SW22      30.05F WCI  18
Choteau          N/A     37  21  52 SW20G29   29.99F WCI  27
Fairfield      FAIR      33  21  60 SW16      30.03R WCI  23
Raynesford     FAIR      35  21  55 S23       30.06F WCI  23
Ulm            FAIR      32  23  69 S10       30.07F WCI  24
White Sulphur    N/A     27  18  69 S13G18    30.15S WCI  16
$$

MTZ011-013-016-021-045-047-050-051-010900-
North Central Montana

CITY           SKY/WX    TMP DP  RH WIND       PRES   REMARKS
Havre          CLEAR     35  25  66 SW25G36   29.99S WCI  23
Lewistown      CLEAR     25  16  68 VRB3      30.05S
Chinook          N/A     25  23  93 NE3       30.01S
Denton         FAIR      34  22  62 W18       30.00S WCI  23
Fort Benton      N/A     37  23  56 S12G17    30.04F WCI  30
Geyser         FAIR      33  21  60 W8        30.04S WCI  27
Grass Range    FAIR      32  20  61 W9        30.01R WCI  24
N Bar Ranch    FAIR      30  16  55 W7        30.06R WCI  23
Roy            FAIR      35  21  56 W24       30.01S WCI  23
Stanford       FAIR      22  16  79 CALM      30.04S
Winifred         N/A     33  22  64 SW16      30.01F WCI  22
$$

MTZ017>020-022>027-061-062-010900-
Northeast Montana

CITY           SKY/WX    TMP DP  RH WIND       PRES   REMARKS
Glasgow        CLEAR     14   9  80 E16       30.07R WCI  -2
Circle           N/A     10   9  92 CALM      30.07
Glendive       CLEAR     14  12  92 NE9       30.11R WCI   2
Jordan           N/A     19  14  81 CALM      30.05R
Malta          MOCLDY    23  19  86 E6        30.03S WCI  16
Plentywood     CLOUDY     9   5  85 SE8       30.14R WCI  -4
Poplar           N/A     10   7  85 NE6       30.14S WCI   1
Sidney         CLEAR     11   8  88 NE7       30.15S WCI   0
Wolf Point     PTCLDY    11   7  84 E6        30.14S WCI   1
$$

MTZ028>42-056>058-010900-
Southcentral and southeast Montana

CITY           SKY/WX    TMP DP  RH WIND       PRES   REMARKS
Baker          CLEAR     23  14  68 MISG      30.08R
Big Timber     CLEAR     30  14  51 W32G46    30.13R WCI  15
Billings       CLEAR     27  13  55 SW13      30.12S WCI  16
Hardin         MOSUNNY   28  19  69 SW10      30.13  WCI  19
Harlowton      FAIR      32  19  59 W32G39    30.07R WCI  17
Laurel           N/A     27  16  63 SW8       30.15S WCI  18
Livingston     CLEAR     30  14  51 SW33G44   30.17R WCI  14
Miles City     CLEAR     26  19  74 SW7       30.08R WCI  18
$$

Regional Reports...Dakotas/MN

CITY           SKY/WX    TMP DP  RH WIND       PRES   REMARKS
Williston      CLOUDY    10   5  80 SE7       30.13R WCI  -1
Minot          CLEAR      1  -4  79 N3        30.22R
Dickinson      CLOUDY    12   8  84 E5        30.11R
Beach          FAIR      12  10  92 E14       30.11R WCI  -3
Crosby         FAIR      -9 -15  77 CALM      30.19R
Hettinger      CLOUDY    15  13  91 NE10      30.12R WCI   2
Tioga          CLOUDY     0  -2  92 E3        30.16R
Watford City   FAIR       9   7  92 CALM      30.17R
Bismarck       CLOUDY    16   9  74 NE9       30.20R WCI   4
Grand Forks    CLEAR      0  -7  72 N10       30.29R WCI -16
Fargo          MOCLDY    10  -5  50 N21       30.25R WCI  -9
Buffalo SD       N/A     25  15  66 NW12      30.05R WCI  14
Rapid City     CLOUDY    27  14  58 W3        30.10R
Intl Falls     CLEAR     -2 -14  56 NW9       30.15R WCI -18
Duluth         MOCLDY    10  -2  58 NW9       30.05R WCI  -3
Minneapolis    CLOUDY    21  12  68 NW7       30.12R WCI  12
$$

Regional Reports...WY/ID/WA

CITY           SKY/WX    TMP DP  RH WIND       PRES   REMARKS
Buffalo WY     CLEAR     23   7  50 VRB5      30.12R
Cody           CLEAR     31  13  47 W12       30.16S WCI  22
Gillette       CLEAR     25  12  58 W15       30.13R WCI  13
Powell         FAIR      19   9  63 SE10      30.14R WCI   8
Sheridan       CLEAR     22  11  62 S5        30.14R
Yellowstone La   N/A     11   8  88 CALM      30.29R
Boise          CLEAR     30  21  69 CALM      30.34F
Couer d`Alene  CLOUDY    36  28  73 S5        30.21F
Idaho Falls    CLEAR     10   6  84 N5        30.39R
Salmon         CLEAR     18  11  74 MISG      30.36S
Spokane        PTCLDY    35  27  72 SE9       30.19S WCI  28
Seattle        MOCLDY    42  39  89 SE5       30.12F
$$

Regional Reports...Alberta

CITY           SKY/WX    TMP DP  RH WIND       PRES   REMARKS
Calgary        MOCLDY    43  19  39 W18G31    29.80S
Cardston         N/A     39  23  52 W18G25      N/A  WCI  30
Crowsnest Pass   N/A     34  25  69 SE2         N/A
Del Bonita       N/A     32  25  74 W24         N/A  WCI  19
Edmonton       PTCLDY    21  19  93 SW2       29.69S
Fort McMurray  LGT SNOW   7   1  78 SE15G21   29.71  WCI -11
High Level     LGT SNOW  -2  -8  78 CALM      29.64  VSB 1
Lethbridge     CLEAR     41  23  48 W22G38    29.92S
Lloydminster   FLURRIES   9   3  78 SE16G23   29.81F WCI  -9
Medicine Hat   CLEAR     34  25  69 S15G23    29.88S WCI  24
Milk River       N/A     34  25  69 W21G28      N/A  WCI  22
Onefour          N/A     25  21  86 E7          N/A  WCI  17
Peace River    CLOUDY    18  14  86 W13       29.54S WCI   4
Pincher Creek  CLOUDY    36  23  60 W37G48    29.94R WCI  21
Raymond          N/A     39  25  56 SW20        N/A  WCI  30
Waterton Gate    N/A     34  23  64 SW17G32     N/A  WCI  23
Fort Smith NWT FLURRIES  -9 -20  59 SE6       29.82F WCI -23
$$

Regional Reports...Saskatchewan

CITY           SKY/WX    TMP DP  RH WIND       PRES   REMARKS
Assiniboia       N/A     10   5  79 SE8         N/A  WCI  -1
Coronach         N/A     12   9  85 SE9         N/A  WCI   0
Cypress Hills    N/A     21  18  86 MISG        N/A
Estevan        CLEAR     -4  -8  84 SE6       30.17S WCI -16
La Ronge         N/A    -11 -24  53 S7          N/A  WCI -26
Moose Jaw        N/A      3   0  85 SE9         N/A  WCI -11
Prince Albert  MOCLDY    -8 -18  59 E6        30.15F WCI -21
Regina         PTCLDY     0  -8  71 SE14      30.14R WCI -19
Rockglen         N/A     10   7  85 S16         N/A  WCI  -7
Saskatoon      CLOUDY     0  -8  71 SE13      30.06F WCI -18
Swift Current  CLOUDY    12   9  85 S17G23    29.93S WCI  -5
Uranium City     N/A    -11 -24  53 MISG        N/A
Val Marie        N/A     19  16  86 S7          N/A  WCI  10
$$




USA.gov is the U.S. government's official web portal to all federal, state and local government web resources and services.